| time (UTC) | temp F | wind direction | speed MPH | gust MPH | rain 1hr in | rain 24hr in | rain mn in | humidity % | barometer mb |
| 20260507232104 | 59 | 25 | 2.0 | 5.0 | 0.00 | 0.04 | 0.04 | 40 | 1009.3 |
| 20260507231604 | 59 | 40 | 2.0 | 5.0 | 0.00 | 0.04 | 0.04 | 40 | 1009.3 |
| 20260507231104 | 59 | 97 | 3.0 | 10.0 | 0.00 | 0.04 | 0.04 | 39 | 1009.3 |
| 20260507230604 | 59 | 38 | 2.0 | 9.0 | 0.00 | 0.04 | 0.04 | 40 | 1009.4 |
| 20260507230104 | 60 | 15 | 2.0 | 9.0 | 0.00 | 0.04 | 0.04 | 39 | 1009.3 |
| 20260507225604 | 60 | 53 | 2.0 | 12.0 | 0.00 | 0.04 | 0.04 | 39 | 1009.3 |
| 20260507225104 | 60 | 37 | 3.0 | 12.0 | 0.00 | 0.04 | 0.04 | 38 | 1009.3 |
| 20260507224603 | 60 | 13 | 3.0 | 8.0 | 0.00 | 0.04 | 0.04 | 39 | 1009.2 |
| 20260507224105 | 60 | 325 | 2.0 | 5.0 | 0.00 | 0.04 | 0.04 | 39 | 1009.4 |
| 20260507223603 | 60 | 358 | 2.0 | 10.0 | 0.00 | 0.04 | 0.04 | 38 | 1009.3 |
| 20260507222604 | 60 | 8 | 2.0 | 9.0 | 0.00 | 0.04 | 0.04 | 39 | 1009.5 |
| 20260507222104 | 61 | 348 | 2.0 | 9.0 | 0.00 | 0.04 | 0.04 | 39 | 1009.5 |
| 20260507221104 | 61 | 16 | 7.0 | 15.0 | 0.00 | 0.04 | 0.04 | 37 | 1009.4 |
| 20260507220603 | 61 | 22 | 2.0 | 8.0 | 0.00 | 0.04 | 0.04 | 40 | 1009.4 |
| 20260507220104 | 61 | 346 | 3.0 | 10.0 | 0.00 | 0.04 | 0.04 | 39 | 1009.4 |
| 20260507215604 | 61 | 30 | 2.0 | 9.0 | 0.00 | 0.04 | 0.04 | 40 | 1009.5 |
| 20260507215104 | 61 | 25 | 3.0 | 8.0 | 0.00 | 0.04 | 0.04 | 38 | 1009.5 |
| 20260507214604 | 61 | 15 | 2.0 | 9.0 | 0.00 | 0.04 | 0.04 | 39 | 1009.6 |
| 20260507213604 | 61 | 329 | 3.0 | 6.0 | 0.00 | 0.04 | 0.04 | 38 | 1009.3 |
| 20260507212603 | 62 | 73 | 3.0 | 14.0 | 0.00 | 0.04 | 0.04 | 37 | 1009.3 |
| 20260507212103 | 62 | 17 | 5.0 | 14.0 | 0.00 | 0.04 | 0.04 | 38 | 1009.2 |
| 20260507211603 | 61 | 17 | 5.0 | 9.0 | 0.00 | 0.04 | 0.04 | 38 | 1009.2 |
| 20260507211103 | 62 | 43 | 5.0 | 13.0 | 0.00 | 0.04 | 0.04 | 36 | 1009.1 |
| 20260507205603 | 63 | 34 | 5.0 | 12.0 | 0.00 | 0.04 | 0.04 | 38 | 1009.0 |
| 20260507205104 | 62 | 51 | 4.0 | 10.0 | 0.00 | 0.04 | 0.04 | 37 | 1008.9 |
| 20260507203605 | 64 | 338 | 7.0 | 15.0 | 0.00 | 0.04 | 0.04 | 35 | 1008.9 |
| 20260507203104 | 64 | 23 | 5.0 | 12.0 | 0.00 | 0.04 | 0.04 | 36 | 1008.9 |
| 20260507202604 | 64 | 63 | 3.0 | 12.0 | 0.00 | 0.04 | 0.04 | 37 | 1009.0 |
| 20260507202104 | 64 | 358 | 3.0 | 12.0 | 0.00 | 0.04 | 0.04 | 36 | 1009.0 |
| 20260507201603 | 64 | 344 | 5.0 | 15.0 | 0.00 | 0.04 | 0.04 | 37 | 1008.8 |
| 20260507200603 | 65 | 24 | 2.0 | 9.0 | 0.00 | 0.04 | 0.04 | 39 | 1009.0 |
| 20260507195604 | 63 | 41 | 6.0 | 12.0 | 0.00 | 0.04 | 0.04 | 39 | 1009.1 |
| 20260507195104 | 63 | 19 | 4.0 | 9.0 | 0.00 | 0.04 | 0.04 | 38 | 1009.1 |
| 20260507194604 | 64 | 318 | 5.0 | 9.0 | 0.00 | 0.05 | 0.04 | 37 | 1009.2 |
| 20260507194104 | 64 | 27 | 5.0 | 12.0 | 0.00 | 0.05 | 0.04 | 38 | 1009.3 |
| 20260507193103 | 65 | 16 | 3.0 | 6.0 | 0.00 | 0.05 | 0.04 | 40 | 1009.4 |
| 20260507191104 | 62 | 50 | 3.0 | 9.0 | 0.00 | 0.05 | 0.04 | 38 | 1009.5 |
| 20260507190604 | 63 | 325 | 6.0 | 12.0 | 0.00 | 0.05 | 0.04 | 38 | 1009.7 |
| 20260507190105 | 63 | 354 | 5.0 | 10.0 | 0.00 | 0.05 | 0.04 | 40 | 1009.8 |
| 20260507185103 | 63 | 4 | 6.0 | 17.0 | 0.00 | 0.05 | 0.04 | 39 | 1009.8 |
| 20260507184103 | 62 | 251 | 2.0 | 12.0 | 0.00 | 0.05 | 0.04 | 39 | 1010.0 |
| 20260507183103 | 63 | 340 | 6.0 | 12.0 | 0.00 | 0.05 | 0.04 | 37 | 1010.0 |
| 20260507182603 | 63 | 24 | 5.0 | 13.0 | 0.00 | 0.05 | 0.04 | 39 | 1010.2 |
| 20260507182104 | 61 | 337 | 2.0 | 8.0 | 0.00 | 0.05 | 0.04 | 42 | 1010.1 |
| 20260507181604 | 63 | 2 | 5.0 | 9.0 | 0.00 | 0.05 | 0.04 | 41 | 1010.3 |
| 20260507181104 | 63 | 42 | 5.0 | 12.0 | 0.00 | 0.05 | 0.04 | 40 | 1010.3 |
| 20260507180103 | 63 | 327 | 4.0 | 12.0 | 0.00 | 0.05 | 0.04 | 40 | 1010.3 |
| 20260507175604 | 63 | 356 | 4.0 | 12.0 | 0.00 | 0.06 | 0.04 | 40 | 1010.3 |
| 20260507175103 | 63 | 319 | 4.0 | 12.0 | 0.00 | 0.06 | 0.04 | 40 | 1010.4 |
| 20260507174104 | 62 | 49 | 5.0 | 12.0 | 0.00 | 0.07 | 0.04 | 41 | 1010.4 |
| 20260507172603 | 62 | 13 | 3.0 | 9.0 | 0.00 | 0.07 | 0.04 | 41 | 1010.6 |
| 20260507172104 | 62 | 5 | 3.0 | 12.0 | 0.00 | 0.07 | 0.04 | 40 | 1010.7 |
| 20260507171603 | 61 | 339 | 6.0 | 13.0 | 0.00 | 0.07 | 0.04 | 40 | 1010.8 |
| 20260507171104 | 61 | 347 | 4.0 | 12.0 | 0.00 | 0.07 | 0.04 | 44 | 1010.7 |
| 20260507170604 | 61 | 0 | 5.0 | 12.0 | 0.00 | 0.07 | 0.04 | 43 | 1010.8 |
| 20260507170104 | 62 | 354 | 4.0 | 12.0 | 0.00 | 0.07 | 0.04 | 40 | 1010.9 |
| 20260507165603 | 62 | 355 | 5.0 | 12.0 | 0.00 | 0.08 | 0.04 | 45 | 1010.8 |
| 20260507165104 | 61 | 310 | 5.0 | 12.0 | 0.00 | 0.08 | 0.04 | 40 | 1011.0 |
| 20260507164603 | 61 | 43 | 3.0 | 10.0 | 0.00 | 0.08 | 0.04 | 44 | 1011.1 |
| 20260507163603 | 60 | 28 | 3.0 | 12.0 | 0.00 | 0.08 | 0.04 | 46 | 1011.2 |
| 20260507163103 | 59 | 346 | 5.0 | 13.0 | 0.00 | 0.09 | 0.04 | 46 | 1011.3 |
| 20260507162604 | 60 | 358 | 4.0 | 10.0 | 0.00 | 0.09 | 0.04 | 44 | 1011.4 |
| 20260507162103 | 60 | 58 | 4.0 | 9.0 | 0.00 | 0.10 | 0.04 | 49 | 1011.4 |
| 20260507160604 | 60 | 23 | 4.0 | 9.0 | 0.00 | 0.11 | 0.04 | 46 | 1011.7 |
| 20260507160104 | 59 | 306 | 1.0 | 6.0 | 0.00 | 0.11 | 0.04 | 45 | 1011.7 |
| 20260507155603 | 59 | 29 | 3.0 | 7.0 | 0.00 | 0.11 | 0.04 | 44 | 1011.9 |
| 20260507155103 | 59 | 292 | 2.0 | 10.0 | 0.00 | 0.12 | 0.04 | 46 | 1012.0 |
| 20260507154604 | 59 | 329 | 4.0 | 8.0 | 0.00 | 0.12 | 0.04 | 43 | 1012.2 |
| 20260507154104 | 59 | 44 | 7.0 | 12.0 | 0.00 | 0.12 | 0.04 | 46 | 1012.2 |
| 20260507153604 | 59 | 62 | 3.0 | 10.0 | 0.00 | 0.12 | 0.04 | 48 | 1012.2 |
| 20260507153103 | 58 | 40 | 0.0 | 3.0 | 0.00 | 0.12 | 0.04 | 48 | 1012.2 |
| 20260507152604 | 58 | 25 | 4.0 | 9.0 | 0.00 | 0.12 | 0.04 | 48 | 1012.5 |
| 20260507152104 | 58 | 16 | 3.0 | 6.0 | 0.00 | 0.12 | 0.04 | 46 | 1012.4 |
| 20260507151603 | 58 | 344 | 4.0 | 12.0 | 0.00 | 0.12 | 0.04 | 46 | 1012.5 |
| 20260507151104 | 58 | 18 | 3.0 | 8.0 | 0.00 | 0.12 | 0.04 | 49 | 1012.4 |
| 20260507150105 | 57 | 58 | 7.0 | 14.0 | 0.00 | 0.12 | 0.04 | 46 | 1012.4 |
| 20260507145605 | 57 | 108 | 7.0 | 12.0 | 0.00 | 0.12 | 0.04 | 44 | 1012.4 |
| 20260507145106 | 58 | 144 | 5.0 | 13.0 | 0.00 | 0.12 | 0.04 | 45 | 1012.5 |
| 20260507144604 | 58 | 87 | 5.0 | 8.0 | 0.00 | 0.12 | 0.04 | 49 | 1012.5 |
| 20260507144105 | 57 | 313 | 2.0 | 3.0 | 0.00 | 0.12 | 0.04 | 47 | 1012.5 |
| 20260507143605 | 57 | 75 | 2.0 | 8.0 | 0.00 | 0.12 | 0.04 | 46 | 1012.6 |
| 20260507143104 | 57 | 313 | 4.0 | 7.0 | 0.00 | 0.12 | 0.04 | 47 | 1012.7 |
| 20260507142105 | 56 | 58 | 5.0 | 12.0 | 0.00 | 0.12 | 0.04 | 46 | 1012.7 |
| 20260507141605 | 56 | 39 | 3.0 | 12.0 | 0.00 | 0.12 | 0.04 | 45 | 1012.7 |
| 20260507140106 | 56 | 357 | 6.0 | 10.0 | 0.00 | 0.12 | 0.04 | 46 | 1013.0 |
| 20260507135105 | 55 | 60 | 6.0 | 12.0 | 0.00 | 0.12 | 0.04 | 46 | 1012.9 |
| 20260507134605 | 55 | 68 | 6.0 | 13.0 | 0.00 | 0.12 | 0.04 | 48 | 1012.9 |
| 20260507134106 | 54 | 69 | 6.0 | 15.0 | 0.00 | 0.12 | 0.04 | 48 | 1013.0 |
| 20260507133605 | 55 | 25 | 7.0 | 16.0 | 0.00 | 0.12 | 0.04 | 46 | 1013.0 |
| 20260507133105 | 55 | 52 | 6.0 | 13.0 | 0.00 | 0.12 | 0.04 | 48 | 1012.8 |
| 20260507132606 | 55 | 73 | 3.0 | 17.0 | 0.00 | 0.12 | 0.04 | 50 | 1012.8 |
| 20260507132105 | 54 | 33 | 2.0 | 8.0 | 0.00 | 0.12 | 0.04 | 54 | 1012.9 |
| 20260507131605 | 55 | 35 | 2.0 | 8.0 | 0.00 | 0.12 | 0.04 | 57 | 1012.8 |
| 20260507131105 | 54 | 38 | 2.0 | 9.0 | 0.00 | 0.12 | 0.04 | 61 | 1012.8 |
| 20260507130606 | 54 | 122 | 5.0 | 8.0 | 0.00 | 0.12 | 0.04 | 61 | 1012.7 |
| 20260507130105 | 54 | 358 | 1.0 | 8.0 | 0.00 | 0.12 | 0.04 | 65 | 1012.6 |
| 20260507125604 | 53 | 10 | 2.0 | 8.0 | 0.00 | 0.12 | 0.04 | 66 | 1012.6 |
| 20260507125106 | 53 | 70 | 1.0 | 8.0 | 0.00 | 0.12 | 0.04 | 67 | 1012.5 |
| 20260507124605 | 53 | 77 | 5.0 | 9.0 | 0.00 | 0.12 | 0.04 | 68 | 1012.5 |
| 20260507123605 | 52 | 73 | 6.0 | 12.0 | 0.00 | 0.12 | 0.04 | 70 | 1012.4 |
| 20260507123106 | 52 | 90 | 5.0 | 12.0 | 0.00 | 0.12 | 0.04 | 72 | 1012.4 |
| 20260507122605 | 51 | 63 | 6.0 | 12.0 | 0.00 | 0.12 | 0.04 | 74 | 1012.4 |
| 20260507121605 | 50 | 107 | 6.0 | 12.0 | 0.00 | 0.12 | 0.04 | 80 | 1012.4 |
| 20260507121105 | 50 | 71 | 5.0 | 12.0 | 0.00 | 0.12 | 0.04 | 85 | 1012.4 |
| 20260507120606 | 49 | 1 | 2.0 | 7.0 | 0.00 | 0.12 | 0.04 | 87 | 1012.3 |
| 20260507120104 | 49 | 48 | 0.0 | 2.0 | 0.00 | 0.12 | 0.04 | 87 | 1012.4 |
| 20260507115604 | 49 | 51 | 0.0 | 1.0 | 0.00 | 0.12 | 0.04 | 88 | 1012.4 |
| 20260507114604 | 50 | 25 | 0.0 | 2.0 | 0.00 | 0.12 | 0.04 | 89 | 1012.3 |
| 20260507114105 | 50 | 47 | 2.0 | 7.0 | 0.00 | 0.12 | 0.04 | 90 | 1012.2 |
| 20260507113605 | 50 | 356 | 1.0 | 3.0 | 0.00 | 0.12 | 0.04 | 90 | 1012.1 |
| 20260507113105 | 49 | 358 | 0.0 | 3.0 | 0.00 | 0.12 | 0.04 | 91 | 1012.1 |
| 20260507112604 | 49 | 3 | 0.0 | 0.0 | 0.00 | 0.12 | 0.04 | 91 | 1012.1 |
| 20260507112105 | 49 | 3 | 0.0 | 0.0 | 0.00 | 0.12 | 0.04 | 91 | 1012.2 |
| 20260507111606 | 49 | 3 | 0.0 | 0.0 | 0.00 | 0.12 | 0.04 | 91 | 1012.1 |
| 20260507111104 | 48 | 3 | 0.0 | 2.0 | 0.00 | 0.12 | 0.04 | 91 | 1012.0 |
| 20260507110605 | 48 | 0 | 0.0 | 2.0 | 0.00 | 0.12 | 0.04 | 91 | 1011.9 |
| 20260507110105 | 48 | 359 | 0.0 | 1.0 | 0.00 | 0.12 | 0.04 | 91 | 1012.0 |
| 20260507105609 | 48 | 359 | 0.0 | 1.0 | 0.00 | 0.12 | 0.04 | 92 | 1011.8 |
| 20260507105105 | 48 | 359 | 1.0 | 2.0 | 0.00 | 0.12 | 0.04 | 92 | 1011.6 |
| 20260507104606 | 48 | 359 | 0.0 | 2.0 | 0.00 | 0.12 | 0.04 | 92 | 1011.4 |
| 20260507104106 | 47 | 359 | 1.0 | 2.0 | 0.00 | 0.12 | 0.04 | 92 | 1011.5 |
| 20260507103604 | 47 | 359 | 0.0 | 2.0 | 0.00 | 0.12 | 0.04 | 92 | 1011.3 |
| 20260507103104 | 47 | 359 | 1.0 | 2.0 | 0.00 | 0.12 | 0.04 | 91 | 1011.2 |
| 20260507102606 | 47 | 359 | 0.0 | 2.0 | 0.00 | 0.12 | 0.04 | 91 | 1011.2 |
| 20260507102105 | 47 | 359 | 0.0 | 1.0 | 0.00 | 0.12 | 0.04 | 91 | 1011.2 |
| 20260507101605 | 47 | 359 | 0.0 | 0.0 | 0.00 | 0.12 | 0.04 | 91 | 1011.2 |
| 20260507100605 | 47 | 359 | 0.0 | 0.0 | 0.00 | 0.12 | 0.04 | 91 | 1011.0 |
| 20260507100105 | 47 | 359 | 0.0 | 0.0 | 0.00 | 0.12 | 0.04 | 91 | 1010.9 |
| 20260507095105 | 47 | 359 | 0.0 | 0.0 | 0.00 | 0.12 | 0.04 | 91 | 1010.9 |
| 20260507094605 | 47 | 359 | 0.0 | 0.0 | 0.00 | 0.12 | 0.04 | 91 | 1010.7 |
| 20260507094104 | 47 | 359 | 0.0 | 3.0 | 0.00 | 0.12 | 0.04 | 91 | 1010.7 |
| 20260507093605 | 47 | 359 | 1.0 | 2.0 | 0.00 | 0.12 | 0.04 | 90 | 1010.7 |
| 20260507093106 | 47 | 359 | 1.0 | 3.0 | 0.00 | 0.12 | 0.04 | 90 | 1010.6 |
| 20260507092606 | 47 | 359 | 0.0 | 2.0 | 0.00 | 0.12 | 0.04 | 90 | 1010.6 |
| 20260507092106 | 48 | 359 | 0.0 | 2.0 | 0.00 | 0.12 | 0.04 | 90 | 1010.9 |
| 20260507091606 | 48 | 359 | 0.0 | 0.0 | 0.00 | 0.12 | 0.04 | 90 | 1010.8 |
| 20260507090105 | 48 | 359 | 0.0 | 2.0 | 0.00 | 0.12 | 0.04 | 90 | 1010.9 |
| 20260507085605 | 49 | 359 | 0.0 | 3.0 | 0.00 | 0.12 | 0.04 | 90 | 1010.8 |
| 20260507085105 | 49 | 359 | 1.0 | 3.0 | 0.00 | 0.12 | 0.04 | 90 | 1010.8 |
| 20260507084106 | 49 | 359 | 1.0 | 3.0 | 0.01 | 0.12 | 0.04 | 90 | 1010.6 |
| 20260507083105 | 49 | 3 | 1.0 | 6.0 | 0.01 | 0.12 | 0.04 | 91 | 1010.8 |
| 20260507082605 | 49 | 0 | 2.0 | 3.0 | 0.01 | 0.12 | 0.04 | 91 | 1010.7 |
| 20260507082105 | 49 | 355 | 1.0 | 3.0 | 0.01 | 0.12 | 0.04 | 91 | 1011.0 |
| 20260507081604 | 49 | 318 | 1.0 | 3.0 | 0.01 | 0.12 | 0.04 | 91 | 1011.0 |
| 20260507081105 | 49 | 315 | 0.0 | 3.0 | 0.01 | 0.12 | 0.04 | 91 | 1011.1 |
| 20260507080604 | 49 | 338 | 2.0 | 5.0 | 0.01 | 0.12 | 0.04 | 91 | 1010.9 |
| 20260507080105 | 50 | 345 | 2.0 | 3.0 | 0.01 | 0.12 | 0.04 | 91 | 1011.0 |
| 20260507075605 | 50 | 313 | 1.0 | 3.0 | 0.02 | 0.12 | 0.04 | 91 | 1010.9 |
| 20260507075106 | 50 | 311 | 1.0 | 3.0 | 0.02 | 0.12 | 0.04 | 91 | 1010.9 |
| 20260507074604 | 50 | 290 | 2.0 | 3.0 | 0.02 | 0.12 | 0.04 | 91 | 1011.2 |
| 20260507073105 | 51 | 326 | 0.0 | 3.0 | 0.01 | 0.11 | 0.03 | 91 | 1011.1 |
| 20260507072105 | 51 | 3 | 0.0 | 2.0 | 0.01 | 0.11 | 0.03 | 91 | 1011.2 |
| 20260507071604 | 51 | 3 | 1.0 | 2.0 | 0.02 | 0.11 | 0.03 | 91 | 1011.1 |
| 20260507071105 | 51 | 323 | 0.0 | 3.0 | 0.02 | 0.11 | 0.03 | 90 | 1011.3 |
| 20260507070605 | 51 | 319 | 0.0 | 6.0 | 0.02 | 0.11 | 0.03 | 90 | 1011.3 |
| 20260507070104 | 51 | 305 | 0.0 | 3.0 | 0.02 | 0.11 | 0.03 | 90 | 1011.3 |
| 20260507065604 | 51 | 304 | 1.0 | 3.0 | 0.01 | 0.10 | 0.02 | 90 | 1011.4 |
| 20260507064606 | 52 | 299 | 0.0 | 1.0 | 0.02 | 0.10 | 0.02 | 89 | 1010.9 |
| 20260507063604 | 52 | 299 | 0.0 | 1.0 | 0.02 | 0.10 | 0.02 | 89 | 1010.8 |
| 20260507063105 | 52 | 299 | 2.0 | 3.0 | 0.02 | 0.10 | 0.02 | 88 | 1011.0 |
| 20260507062605 | 52 | 297 | 2.0 | 3.0 | 0.02 | 0.10 | 0.02 | 88 | 1010.8 |
| 20260507062104 | 52 | 314 | 0.0 | 1.0 | 0.02 | 0.10 | 0.02 | 87 | 1010.5 |
| 20260507061605 | 52 | 314 | 0.0 | 0.0 | 0.01 | 0.09 | 0.01 | 87 | 1010.7 |
| 20260507061105 | 52 | 314 | 0.0 | 2.0 | 0.01 | 0.09 | 0.01 | 87 | 1010.6 |
| 20260507060605 | 53 | 314 | 1.0 | 2.0 | 0.01 | 0.09 | 0.01 | 86 | 1010.6 |
| 20260507060104 | 53 | 314 | 0.0 | 2.0 | 0.01 | 0.09 | 0.01 | 86 | 1010.5 |
| 20260507055604 | 53 | 314 | 1.0 | 2.0 | 0.01 | 0.09 | 0.01 | 85 | 1010.4 |
| 20260507055106 | 53 | 314 | 1.0 | 2.0 | 0.01 | 0.09 | 0.01 | 84 | 1010.4 |
| 20260507054606 | 53 | 344 | 0.0 | 0.0 | 0.00 | 0.08 | 0.00 | 84 | 1010.0 |
| 20260507054106 | 53 | 336 | 0.0 | 0.0 | 0.00 | 0.08 | 0.00 | 84 | 1010.1 |
| 20260507053105 | 53 | 336 | 0.0 | 0.0 | 0.00 | 0.08 | 0.00 | 83 | 1010.0 |
| 20260507051104 | 54 | 321 | 1.0 | 2.0 | 0.00 | 0.08 | 0.00 | 82 | 1010.1 |
| 20260507050105 | 54 | 336 | 1.0 | 3.0 | 0.00 | 0.08 | 0.00 | 82 | 1010.4 |
| 20260507045606 | 54 | 339 | 1.0 | 3.0 | 0.00 | 0.08 | 0.00 | 82 | 1010.6 |
| 20260507045104 | 54 | 339 | 1.0 | 3.0 | 0.00 | 0.08 | 0.00 | 82 | 1010.8 |
| 20260507043604 | 54 | 349 | 0.0 | 0.0 | 0.00 | 0.08 | 0.00 | 82 | 1010.8 |
| 20260507043106 | 54 | 349 | 0.0 | 0.0 | 0.00 | 0.08 | 0.00 | 81 | 1010.8 |
| 20260507042605 | 54 | 349 | 1.0 | 3.0 | 0.00 | 0.08 | 0.00 | 81 | 1010.8 |
| 20260507042104 | 54 | 347 | 0.0 | 0.0 | 0.00 | 0.08 | 0.00 | 81 | 1010.5 |
| 20260507041605 | 54 | 347 | 0.0 | 1.0 | 0.00 | 0.08 | 0.00 | 81 | 1010.4 |
| 20260507041106 | 54 | 347 | 0.0 | 1.0 | 0.00 | 0.08 | 0.00 | 81 | 1010.6 |
| 20260507040605 | 55 | 347 | 1.0 | 3.0 | 0.00 | 0.08 | 0.00 | 81 | 1010.8 |
| 20260507040106 | 55 | 348 | 0.0 | 3.0 | 0.00 | 0.08 | 0.00 | 81 | 1010.8 |
| 20260507035605 | 55 | 336 | 1.0 | 3.0 | 0.00 | 0.08 | 0.08 | 81 | 1010.8 |
| 20260507035105 | 55 | 336 | 2.0 | 6.0 | 0.00 | 0.08 | 0.08 | 81 | 1010.6 |
| 20260507034606 | 55 | 355 | 0.0 | 1.0 | 0.00 | 0.08 | 0.08 | 81 | 1010.7 |
| 20260507034106 | 55 | 353 | 0.0 | 5.0 | 0.00 | 0.08 | 0.08 | 81 | 1010.5 |
| 20260507033105 | 55 | 18 | 1.0 | 3.0 | 0.00 | 0.08 | 0.08 | 81 | 1010.4 |
| 20260507032605 | 55 | 358 | 1.0 | 3.0 | 0.00 | 0.08 | 0.08 | 81 | 1010.3 |
| 20260507032105 | 55 | 5 | 2.0 | 3.0 | 0.00 | 0.08 | 0.08 | 81 | 1010.2 |
| 20260507031605 | 55 | 35 | 1.0 | 3.0 | 0.00 | 0.08 | 0.08 | 81 | 1010.4 |
| 20260507031106 | 55 | 349 | 1.0 | 5.0 | 0.00 | 0.08 | 0.08 | 81 | 1010.4 |
| 20260507030607 | 55 | 14 | 0.0 | 0.0 | 0.00 | 0.08 | 0.08 | 81 | 1010.6 |
| 20260507030105 | 55 | 14 | 0.0 | 2.0 | 0.00 | 0.08 | 0.08 | 81 | 1010.7 |
| 20260507025605 | 55 | 14 | 0.0 | 3.0 | 0.00 | 0.08 | 0.08 | 81 | 1010.8 |
| 20260507025104 | 55 | 12 | 1.0 | 3.0 | 0.00 | 0.08 | 0.08 | 80 | 1010.7 |
| 20260507024605 | 56 | 15 | 3.0 | 8.0 | 0.00 | 0.08 | 0.08 | 81 | 1010.7 |
| 20260507024106 | 56 | 71 | 2.0 | 9.0 | 0.00 | 0.08 | 0.08 | 81 | 1010.7 |
| 20260507023605 | 56 | 3 | 4.0 | 9.0 | 0.00 | 0.08 | 0.08 | 82 | 1010.7 |
| 20260507022604 | 57 | 345 | 2.0 | 12.0 | 0.00 | 0.08 | 0.08 | 84 | 1010.7 |
| 20260507022105 | 57 | 294 | 2.0 | 12.0 | 0.00 | 0.08 | 0.08 | 84 | 1010.6 |
| 20260507021605 | 57 | 340 | 6.0 | 10.0 | 0.00 | 0.08 | 0.08 | 85 | 1010.4 |
| 20260507021105 | 58 | 292 | 5.0 | 9.0 | 0.00 | 0.08 | 0.08 | 85 | 1010.3 |
| 20260507020606 | 58 | 305 | 3.0 | 8.0 | 0.00 | 0.08 | 0.08 | 85 | 1010.2 |
| 20260507020105 | 58 | 317 | 3.0 | 6.0 | 0.00 | 0.08 | 0.08 | 85 | 1010.1 |
| 20260507015605 | 58 | 341 | 2.0 | 3.0 | 0.00 | 0.08 | 0.08 | 85 | 1010.1 |
| 20260507015105 | 58 | 309 | 2.0 | 5.0 | 0.00 | 0.08 | 0.08 | 85 | 1010.1 |
| 20260507014605 | 58 | 305 | 3.0 | 7.0 | 0.00 | 0.08 | 0.08 | 84 | 1010.2 |
| 20260507014104 | 58 | 325 | 5.0 | 12.0 | 0.00 | 0.08 | 0.08 | 83 | 1010.0 |
| 20260507013605 | 58 | 318 | 3.0 | 8.0 | 0.00 | 0.08 | 0.08 | 83 | 1010.0 |
| 20260507013105 | 58 | 342 | 3.0 | 9.0 | 0.00 | 0.08 | 0.08 | 84 | 1010.0 |
| 20260507012605 | 59 | 346 | 5.0 | 12.0 | 0.00 | 0.08 | 0.08 | 86 | 1010.0 |
| 20260507012105 | 59 | 329 | 3.0 | 7.0 | 0.00 | 0.08 | 0.08 | 87 | 1009.9 |
| 20260507011606 | 60 | 298 | 6.0 | 9.0 | 0.00 | 0.08 | 0.08 | 87 | 1009.9 |
| 20260507010604 | 60 | 349 | 3.0 | 10.0 | 0.00 | 0.08 | 0.08 | 87 | 1009.6 |
| 20260507010104 | 60 | 329 | 3.0 | 9.0 | 0.00 | 0.08 | 0.08 | 88 | 1009.6 |
| 20260507005604 | 60 | 299 | 3.0 | 9.0 | 0.00 | 0.08 | 0.08 | 88 | 1009.3 |
| 20260507005105 | 61 | 289 | 6.0 | 10.0 | 0.00 | 0.08 | 0.08 | 88 | 1009.0 |
| 20260507004605 | 61 | 294 | 2.0 | 7.0 | 0.00 | 0.08 | 0.08 | 88 | 1008.9 |
| 20260507004105 | 61 | 300 | 5.0 | 8.0 | 0.00 | 0.08 | 0.08 | 88 | 1008.8 |
| 20260507003607 | 61 | 329 | 5.0 | 8.0 | 0.00 | 0.08 | 0.08 | 89 | 1008.7 |
| 20260507003105 | 62 | 3 | 2.0 | 5.0 | 0.00 | 0.08 | 0.08 | 89 | 1008.5 |
| 20260507002606 | 62 | 330 | 2.0 | 3.0 | 0.00 | 0.08 | 0.08 | 90 | 1008.4 |
| 20260507002104 | 62 | 358 | 1.0 | 3.0 | 0.00 | 0.08 | 0.08 | 89 | 1008.5 |
| 20260507001605 | 62 | 350 | 3.0 | 6.0 | 0.00 | 0.08 | 0.08 | 89 | 1008.4 |
| 20260507001105 | 63 | 336 | 3.0 | 6.0 | 0.00 | 0.08 | 0.08 | 90 | 1008.4 |
| 20260507000604 | 63 | 280 | 0.0 | 3.0 | 0.00 | 0.08 | 0.08 | 90 | 1007.9 |
| 20260507000105 | 63 | 280 | 2.0 | 3.0 | 0.00 | 0.08 | 0.08 | 90 | 1007.8 |
| 20260506235605 | 63 | 268 | 0.0 | 3.0 | 0.00 | 0.08 | 0.08 | 89 | 1007.7 |
| 20260506235105 | 63 | 282 | 1.0 | 5.0 | 0.00 | 0.08 | 0.08 | 89 | 1007.7 |
| 20260506234606 | 63 | 247 | 0.0 | 2.0 | 0.00 | 0.08 | 0.08 | 89 | 1007.7 |
| 20260506233605 | 63 | 231 | 2.0 | 8.0 | 0.00 | 0.08 | 0.08 | 89 | 1007.7 |
| 20260506233105 | 63 | 251 | 2.0 | 8.0 | 0.00 | 0.08 | 0.08 | 89 | 1007.7 |